JCSAT-17 (45245 NORAD) Tracking and Keplerian Element Data

This shows tracking and keplerian element data for the satellite.

Feedback or suggestion? Click here.




ElementValue
Catalog45245
NameJCSAT-17
Epoch Orbit45
Epoch Day87.06423443
Epoch Year2020
RAAN344.103
Inclination6.9845
Eccentricity0.0003291
Argument of Perigee36.1525
Mean Anonmoly323.7825
Mean Motion1.00271568
Decay Rate-3.22E-06
L11 45245U 20013A 20087.06423443 -.00000322 00000-0 00000+0 0 9996
L22 45245 6.9845 344.1030 0003291 36.1525 323.7825 1.00271568 455

Live tracking and technical data element details for JCSAT-17 (NORAD 45245). JCSAT-17 can be tracked NOW for your location showing map with azimuth and elevation plus other details from your city location.

Track the satellite on the map from your city or location and see movement details for azimuth, elevation, latitude, longitude, range, height, and movement on the map or in text.







IsCatalogInMostPopularTable: catalog: 45245, numindb: 11
Update: records affected: 1



GetName: 45245 JCSAT-17

Hit Count: updated at: Tue, 31 Mar 2020 12:50:52 GMT